[[{"header":{"parameterUnit":"m.s-1","parameterCategory":1,"la1":30.2991,"la2":30.254,"lo1":-89.0895,"lo2":-89.0444,"dy":0.0017,"dx":0.0017,"nx":28,"ny":28,"refTime":"2025-12-12T03:00:00:Z","depth":0,"parameterNumber":2,"parameterNumberName":"U-component_of_WINDS"},"data":[0,0,0,0,0,0,0,0,0,0,0,0,0,0,0,0,0,0,0,0,0,0,0,0,0,0,0,0,0,0,0,0,0,0,0,0,0,0,0,0,0,0,0,0,0,0,0,0,0,0,0,0,0,0,0,0,0,0,-1.7686,-1.7686,0,-1.7751,-1.7752,-1.7753,-1.7698,-1.7695,-1.7693,-1.7691,-1.7759,-1.7763,-1.7767,0,0,0,0,0,0,0,0,0,0,0,0,0,-1.7514,-1.7517,-1.7686,-1.7686,-1.7687,-1.7751,-1.7752,-1.7753,-1.7698,-1.7695,-1.7692,-1.769,-1.7758,-1.7762,-1.7767,0,0,0,0,0,0,0,0,0,0,0,0,0,-1.7585,-1.7518,-1.7685,-1.7667,-1.7667,-1.7751,-1.7752,-1.7753,-1.7699,-1.7695,-1.7692,-1.7688,-1.7756,-1.7762,-1.7768,-1.7874,0,0,-1.7786,-1.7788,0,0,0,0,0,0,0,0,-1.7581,-1.7591,-1.7669,-1.7669,-1.7668,-1.7713,-1.7716,-1.7794,-1.7699,-1.7686,-1.7691,-1.7687,-1.7746,-1.7753,-1.7773,-1.7877,-1.788,-1.7786,-1.779,-1.7792,-1.7794,0,0,0,0,0,0,0,-1.7576,-1.7588,-1.7712,-1.767,-1.767,-1.7657,-1.7663,-1.7731,-1.7735,-1.7687,-1.7683,-1.7692,-1.7745,-1.7767,-1.7774,-1.7881,-1.7786,-1.7791,-1.7795,-1.7797,-1.8076,-1.8079,0,0,0,0,0,0,-1.7573,-1.7584,-1.7709,-1.7713,-1.7615,-1.7662,-1.7669,-1.7702,-1.7734,-1.7736,-1.7695,-1.7689,-1.7759,-1.7767,-1.7776,-1.7903,-1.7792,-1.7798,-1.7801,-1.8072,-1.8076,-1.8081,0,0,0,0,0,0,-1.7569,-1.7584,-1.7707,-1.7648,-1.7662,-1.7669,-1.7706,-1.7705,-1.7727,-1.774,-1.774,-1.7716,-1.7756,-1.7768,-1.785,-1.7904,-1.7801,-1.7806,-1.8067,-1.8073,-1.8078,-1.8156,0,0,0,0,0,0,-1.7565,-1.7584,-1.7623,-1.7649,-1.7666,-1.7779,-1.7709,-1.7709,-1.7737,-1.773,-1.776,-1.7762,-1.7755,-1.7841,-1.7856,-1.7911,-1.7811,-1.8062,-1.807,-1.8077,-1.8149,-1.8164,-1.8177,0,0,0,0,0,-1.7559,-1.7643,-1.7626,-1.7641,-1.7716,-1.7782,-1.7792,-1.7782,-1.7742,-1.7782,-1.7791,-1.7761,-1.7896,-1.785,-1.7866,-1.7923,-1.8059,-1.8068,-1.8076,-1.8143,-1.8161,-1.8177,0,0,0,0,0,0,-1.7623,-1.7646,-1.7627,-1.7722,-1.7751,-1.7773,-1.7823,-1.7801,-1.7842,-1.7834,-1.782,-1.7827,-1.7914,-1.7927,-1.7875,-1.8028,-1.7971,-1.7983,-1.8016,-1.8034,-1.8048,-1.8043,-1.7816,0,0,0,0,0,-1.7648,-1.77,-1.7717,-1.7799,-1.7815,-1.7817,-1.7846,-1.7835,-1.7865,-1.7876,-1.7891,-1.7921,-1.797,-1.8003,-1.8048,-1.8151,-1.8157,-1.8198,-1.8212,-1.8223,-1.8234,-1.829,-1.8308,-1.8109,-1.8109,-1.8109,0,0,-1.7701,-1.772,-1.7753,-1.7813,-1.7834,-1.7888,-1.7828,-1.7887,-1.7928,-1.7886,-1.7964,-1.7976,-1.8008,-1.8101,-1.8142,-1.8114,-1.8291,-1.8234,-1.8243,-1.8248,-1.8301,-1.8319,-1.8336,-1.8115,-1.8114,-1.8113,0,0,-1.7825,-1.7844,-1.7915,-1.7938,-1.797,-1.7971,-1.7988,-1.8014,-1.8021,-1.8099,-1.8069,-1.8117,-1.8202,-1.8226,-1.825,-1.8384,-1.8359,-1.84,-1.8473,-1.8527,-1.8543,-1.8557,-1.8605,-1.8623,-1.841,-1.8411,-1.8411,0,-1.7886,-1.7967,-1.7954,-1.8017,-1.8044,-1.8008,-1.808,-1.8103,-1.8149,-1.8169,-1.8137,-1.8243,-1.8263,-1.8361,-1.8394,-1.8414,-1.8433,-1.8396,-1.8542,-1.8555,-1.8568,-1.8614,-1.8632,-1.8415,-1.8415,-1.8414,-1.8414,0,-1.8041,-1.8097,-1.8151,-1.8196,-1.823,-1.8297,-1.8295,-1.833,-1.8317,-1.8322,-1.8403,-1.8425,-1.8475,-1.8498,-1.8486,-1.8595,-1.8576,-1.8543,-1.8486,-1.8592,-1.8635,-1.8653,-1.8422,-1.842,-1.8419,-1.8418,0,0,-1.8206,-1.8245,-1.8265,-1.8285,-1.8319,-1.8363,-1.8429,-1.8478,-1.8508,-1.8542,-1.8597,-1.867,-1.864,-1.8667,-1.8658,-1.8705,-1.8811,-1.8666,-1.8667,-1.8693,-1.8933,-1.8958,-1.8978,-1.8795,-1.8798,-1.88,-1.8931,0,-1.8332,-1.8446,-1.8437,-1.8545,-1.8597,-1.8565,-1.8622,-1.8649,-1.8656,-1.8702,-1.8709,-1.8761,-1.8717,-1.8733,-1.8779,-1.8789,-1.8859,-1.8779,-1.8846,-1.8849,-1.8839,-1.9001,-1.9027,-1.9149,-1.8947,-1.895,-1.8952,0,-1.8493,-1.8532,-1.8645,-1.8672,-1.8694,-1.8746,-1.879,-1.8834,-1.8865,-1.8866,-1.8897,-1.888,-1.8947,-1.8888,-1.8981,-1.8926,-1.8953,-1.8962,-1.8967,-1.8972,-1.8907,-1.9011,-1.9187,-1.9205,-1.8978,-1.8976,-1.8975,0,-1.8603,-1.8684,-1.8762,-1.8781,-1.8814,-1.8851,-1.8867,-1.8894,-1.8924,-1.8964,-1.8983,-1.903,-1.9056,-1.9092,-1.9089,-1.9046,-1.9183,-1.9124,-1.9186,-1.9186,-1.9216,-1.9214,-1.9399,-1.9234,-1.9234,-1.9233,-1.9233,0,-1.8744,-1.8814,-1.8812,-1.886,-1.8939,-1.8928,-1.9006,-1.9018,-1.9042,-1.9093,-1.9068,-1.9115,-1.9107,-1.9156,-1.9153,-1.923,-1.9242,-1.9245,-1.9244,-1.9248,-1.9247,-1.9265,-1.9256,-1.9238,-1.9237,-1.9236,-1.9235,0,-1.8879,-1.888,-1.8964,-1.8988,-1.8996,-1.9053,-1.9075,-1.9121,-1.9125,-1.9189,-1.9204,-1.9211,-1.9267,-1.9267,-1.933,-1.9328,-1.9423,-1.9412,-1.9412,-1.941,-1.9473,-1.9467,-1.9675,-1.9702,-1.952,-1.9521,-1.9523,0,-1.8969,-1.9022,-1.9053,-1.9085,-1.9103,-1.9154,-1.9185,-1.9178,-1.9211,-1.9251,-1.9292,-1.9345,-1.9387,-1.9477,-1.9489,-1.9537,-1.9527,-1.9597,-1.9534,-1.9536,-1.9528,-1.9525,-1.953,-1.9609,-1.9611,-1.9612,-1.9614,0,-1.9128,-1.9126,-1.9171,-1.9218,-1.9255,-1.9291,-1.9324,-1.9352,-1.9348,-1.9387,-1.9443,-1.9476,-1.9541,-1.9594,-1.9641,-1.9657,-1.9636,-1.9634,-1.9651,-1.9655,-1.9653,-1.9655,-1.9446,-1.9629,-1.9627,-1.9626,-1.9625,-1.9625,-1.9243,-1.9289,-1.9319,-1.937,-1.9394,-1.9426,-1.9471,-1.9481,-1.9528,-1.958,-1.9573,-1.9636,-1.9666,-1.9727,-1.9748,-1.9797,-1.9773,-1.9798,-1.9804,-1.981,-1.9817,-1.9646,-1.9806,-1.9805,-1.9805,-1.9805,-1.9804,0,-1.9401,-1.9418,-1.9466,-1.9513,-1.9554,-1.953,-1.9566,-1.9602,-1.9657,-1.9687,-1.9729,-1.9795,-1.9846,-1.9862,-1.9912,-1.9949,-1.9941,-1.9963,-1.996,-1.9964,-1.9836,-1.9816,-1.9969,-1.9969,-1.9969,-1.9969,-1.9969,-1.9969,-1.9488,-1.9565,-1.9567,-1.9656,-1.9673,-1.9735,-1.9757,-1.9787,-1.9811,-1.9885,-1.9927,-1.9937,-1.9962,-2.0014,-2.0061,-2.0064,-2.0084,-2.011,-2.011,-1.999,-1.9973,-1.9957,-1.9939,-2.0115,-2.0115,-2.0234,-2.0235,-2.0236]},{"header":{"parameterUnit":"m.s-1","parameterCategory":1,"la1":30.2991,"la2":30.254,"lo1":-89.0895,"lo2":-89.0444,"dy":0.0017,"dx":0.0017,"nx":28,"ny":28,"refTime":"2025-12-12T03:00:00:Z","depth":0,"parameterNumber":3,"parameterNumberName":"V-component_of_WINDS"},"data":[0,0,0,0,0,0,0,0,0,0,0,0,0,0,0,0,0,0,0,0,0,0,0,0,0,0,0,0,0,0,0,0,0,0,0,0,0,0,0,0,0,0,0,0,0,0,0,0,0,0,0,0,0,0,0,0,0,0,0.0152,0.0153,0,0.0249,0.0251,0.0252,0.0302,0.0303,0.0303,0.0303,0.0403,0.0405,0.0408,0,0,0,0,0,0,0,0,0,0,0,0,0,0.001,0.0013,0.0152,0.0153,0.0154,0.0249,0.0251,0.0252,0.0302,0.0303,0.0303,0.0303,0.0402,0.0405,0.0408,0,0,0,0,0,0,0,0,0,0,0,0,0,0.0086,0.0013,0.0151,0.0191,0.0195,0.0249,0.0251,0.0252,0.0302,0.0303,0.0303,0.0303,0.0401,0.0405,0.0408,0.0431,0,0,0.042,0.0422,0,0,0,0,0,0,0,0,0.0082,0.0091,0.0184,0.0188,0.0193,0.0264,0.0238,0.0312,0.0302,0.0262,0.0303,0.0303,0.0356,0.0364,0.0382,0.0435,0.0439,0.0421,0.0423,0.0425,0.0426,0,0,0,0,0,0,0,0.0077,0.0087,0.019,0.0185,0.0191,0.0204,0.0215,0.0252,0.0307,0.0265,0.0269,0.028,0.0359,0.0378,0.0385,0.0441,0.0421,0.0424,0.0426,0.0428,0.052,0.052,0,0,0,0,0,0,0.0065,0.0083,0.0187,0.0193,0.0137,0.0207,0.0219,0.0241,0.0307,0.0317,0.028,0.0282,0.0371,0.038,0.0388,0.042,0.0425,0.0428,0.0431,0.052,0.052,0.052,0,0,0,0,0,0,0.0062,0.0074,0.0183,0.0139,0.0154,0.0209,0.0234,0.0243,0.0262,0.0318,0.0328,0.0289,0.0372,0.0383,0.042,0.0424,0.043,0.0434,0.052,0.052,0.052,0.0483,0,0,0,0,0,0,0.0057,0.0072,0.008,0.0139,0.0156,0.0213,0.0234,0.0245,0.0269,0.0273,0.033,0.0339,0.0373,0.0414,0.0424,0.043,0.0437,0.052,0.052,0.052,0.0484,0.0482,0.048,0,0,0,0,0,0.0052,0.0066,0.0081,0.0093,0.0168,0.0213,0.0223,0.0261,0.0269,0.0278,0.0315,0.0337,0.0422,0.0418,0.0429,0.0436,0.052,0.052,0.052,0.0485,0.0482,0.048,0,0,0,0,0,0,0.0005,0.0074,0.0091,0.0124,0.0162,0.0221,0.0234,0.0257,0.0294,0.0296,0.0342,0.0355,0.0388,0.0416,0.0409,0.0463,0.0473,0.0476,0.0443,0.0441,0.0439,0.0431,0.044,0,0,0,0,0,-0.0001,0.003,0.0088,0.0111,0.013,0.0178,0.0199,0.0226,0.0268,0.0284,0.0323,0.0363,0.0399,0.0421,0.0457,0.0489,0.0503,0.05,0.0497,0.0495,0.0497,0.0518,0.0518,0.0521,0.0521,0.0521,0,0,-0.0014,0.0027,0.0043,0.0103,0.0136,0.0167,0.0192,0.0223,0.0247,0.0289,0.0327,0.0357,0.0405,0.044,0.0457,0.0464,0.05,0.0496,0.0494,0.0497,0.0518,0.0518,0.0517,0.0521,0.0521,0.0521,0,0,-0.0022,0.0012,0.0036,0.0069,0.0119,0.0152,0.0157,0.0214,0.0235,0.0275,0.0307,0.0337,0.0397,0.043,0.0455,0.0463,0.0486,0.0473,0.0462,0.0482,0.0482,0.0482,0.0486,0.0487,0.0475,0.0475,0.0475,0,-0.0044,0.0004,0.0045,0.0076,0.0102,0.0142,0.0168,0.0197,0.0256,0.0274,0.0281,0.0359,0.0394,0.0438,0.044,0.0459,0.0468,0.0467,0.0478,0.0479,0.048,0.0484,0.0485,0.0473,0.0473,0.0473,0.0474,0,-0.0026,0.0007,0.0021,0.0078,0.0105,0.0133,0.018,0.0203,0.0228,0.026,0.0301,0.0344,0.0391,0.0403,0.0427,0.0452,0.0455,0.0469,0.0481,0.0477,0.0482,0.0484,0.0471,0.0471,0.0472,0.0472,0,0,-0.0062,0.0019,0.0024,0.0051,0.011,0.0137,0.0167,0.0213,0.0233,0.0273,0.03,0.0352,0.0367,0.0395,0.0424,0.0441,0.0446,0.0454,0.0456,0.0452,0.0478,0.0466,0.0467,0.0462,0.0462,0.0463,0.0474,0,-0.0061,-0.0004,0.0035,0.0076,0.0109,0.0148,0.0175,0.0215,0.0247,0.0279,0.0315,0.0351,0.0367,0.0385,0.0404,0.0441,0.0452,0.0441,0.0489,0.049,0.0476,0.047,0.0458,0.0466,0.0476,0.0476,0.0477,0,-0.0052,-0.0013,0.0032,0.009,0.0105,0.0128,0.0175,0.0205,0.0252,0.0274,0.0306,0.0336,0.0372,0.0381,0.0431,0.0423,0.0445,0.0467,0.0468,0.0474,0.0483,0.0476,0.0469,0.0471,0.048,0.048,0.0479,0,-0.0082,-0.0017,0.0018,0.004,0.0108,0.0124,0.0153,0.02,0.0226,0.0267,0.0285,0.0329,0.0353,0.0388,0.0429,0.0432,0.0476,0.0488,0.0496,0.0495,0.0503,0.0502,0.05,0.0516,0.0516,0.0516,0.0516,0,-0.0085,-0.0059,0.0006,0.0028,0.0059,0.0105,0.0135,0.0167,0.0209,0.0239,0.0276,0.0303,0.0357,0.0391,0.0424,0.0461,0.0471,0.0491,0.05,0.0488,0.0486,0.0503,0.0504,0.0517,0.0517,0.0516,0.0516,0,-0.0113,-0.0068,-0.0027,0.0035,0.0051,0.0071,0.0125,0.0148,0.0183,0.022,0.0232,0.0286,0.0329,0.0374,0.0431,0.0453,0.049,0.0501,0.0474,0.0479,0.0484,0.0483,0.0494,0.0498,0.0511,0.051,0.051,0,-0.0118,-0.0096,-0.0032,-0.0009,0.0019,0.0055,0.0083,0.013,0.0156,0.0213,0.023,0.0275,0.0314,0.038,0.0425,0.047,0.0483,0.0484,0.049,0.0478,0.0484,0.0483,0.0486,0.0481,0.0481,0.0481,0.0481,0,-0.013,-0.0109,-0.0071,-0.0025,0.0007,0.0045,0.0085,0.0102,0.0157,0.0186,0.023,0.026,0.032,0.0365,0.0415,0.0446,0.0473,0.0479,0.0483,0.0471,0.0455,0.0465,0.0469,0.0478,0.0478,0.0478,0.0478,0.0479,-0.0146,-0.0125,-0.0075,-0.0034,0.0002,0.0039,0.0064,0.0103,0.0141,0.0193,0.0219,0.0263,0.0312,0.0383,0.0414,0.045,0.0458,0.0463,0.0465,0.0466,0.0464,0.0449,0.0459,0.0459,0.0459,0.0459,0.046,0,-0.0156,-0.0122,-0.0084,-0.0029,0.0004,0.0027,0.0074,0.01,0.0139,0.0182,0.022,0.0272,0.0316,0.0366,0.0414,0.0433,0.0447,0.0444,0.0443,0.0451,0.0453,0.0445,0.0433,0.0433,0.0433,0.0433,0.0433,0.0433,-0.0157,-0.0119,-0.0091,-0.0035,-0.0,0.0044,0.0069,0.0104,0.0139,0.0195,0.0232,0.0265,0.0311,0.0363,0.0406,0.0419,0.0435,0.0429,0.0446,0.0448,0.045,0.0452,0.0445,0.0432,0.0432,0.0441,0.0441,0.0441]}]]